Location: Blue Mountain Vista Observatory
(40.6992°N, 75.9422°W)
Time: 05:13:33
(UTC-04:00)

IDEFIX/ARIANE 42P - Visible Passes

Search period start: 02 September 2014 00:00
Search period end: 12 September 2014 00:00
Orbit: 786 x 804 km, 98.3° (Epoch: 01 September)

Date Brightness Start Highest point End Pass type
(mag) Time Alt. Az. Time Alt. Az. Time Alt. Az.
02 Sep 2.6 20:26:13 10° SSE 20:31:20 67° ENE 20:36:29 10° N visible
02 Sep 5.2 22:08:41 10° WSW 22:11:24 14° W 22:14:08 10° WNW visible
03 Sep 3.2 19:58:39 10° SE 20:03:21 37° ENE 20:08:05 10° N visible
03 Sep 4.5 21:38:43 10° SSW 21:43:00 26° W 21:47:20 10° NW visible
04 Sep 3.4 21:09:45 10° S 21:14:44 48° W 21:19:45 10° NNW visible
05 Sep 2.5 20:41:23 10° SSE 20:46:34 88° WSW 20:51:47 10° NNW visible
06 Sep 2.8 20:13:32 10° SE 20:18:31 51° ENE 20:23:32 10° N visible
06 Sep 4.9 21:54:49 10° SW 21:58:24 19° W 22:02:02 10° NW visible
07 Sep 3.5 19:46:12 10° SE 19:50:35 29° ENE 19:55:00 10° N visible
07 Sep 4.0 21:25:24 10° SSW 21:30:04 34° W 21:34:47 10° NNW visible
08 Sep 3.0 20:56:43 10° S 21:01:50 63° W 21:07:00 10° NNW visible
09 Sep 2.5 20:28:35 10° SSE 20:33:43 72° ENE 20:38:55 10° N visible
09 Sep 5.2 22:11:27 10° WSW 22:13:51 13° W 22:16:16 10° WNW visible
10 Sep 3.1 20:00:57 10° SE 20:05:44 39° ENE 20:10:33 10° N visible
10 Sep 4.6 21:41:15 10° SSW 21:45:26 25° W 21:49:39 10° NW visible
11 Sep 3.6 21:12:13 10° S 21:17:08 45° W 21:22:08 10° NNW visible
